GW3840 Weather Reports


time (UTC)temp
C
wind
direction
speed
KPH
gust
KPH
rain 1hr
cm
rain 24hr
cm
rain mn
cm
humidity
%
barometer
mb
20260831082807 22 281 3.2 3.2 0.00 0.00 0.00 99 1008.9
20260831082306 22 263 1.6 1.6 0.00 0.00 0.00 99 1009.1
20260831081758 22 260 0.0 0.0 0.00 0.00 0.00 99 1008.8
20260831081248 22 246 3.2 4.8 0.00 0.00 0.00 99 1009.0
20260831080743 22 216 6.4 6.4 0.00 0.00 0.00 99 1009.0
20260831080237 22 240 1.6 3.2 0.00 0.00 0.00 99 1009.0
20260831075733 22 238 1.6 3.2 0.00 0.00 0.00 99 1009.2
20260831075229 21 237 0.0 4.8 0.00 0.00 0.00 99 1009.1
20260831074728 21 245 0.0 0.0 0.00 0.00 0.00 99 1008.9
20260831074222 21 214 0.0 1.6 0.00 0.00 0.00 99 1008.8
20260831073718 21 218 0.0 1.6 0.00 0.00 0.00 99 1008.7
20260831073216 21 238 0.0 1.6 0.00 0.00 0.00 99 1008.7
20260831072712 21 162 0.0 3.2 0.00 0.00 0.00 99 1008.4
20260831072208 21 196 0.0 0.0 0.00 0.00 0.00 99 1008.4
20260831071708 21 219 0.0 0.0 0.00 0.00 0.00 99 1008.5
20260831071202 21 223 0.0 0.0 0.00 0.00 0.00 99 1008.5
20260831070656 20 215 0.0 0.0 0.00 0.00 0.00 99 1008.3
20260831070150 20 216 0.0 0.0 0.00 0.00 0.00 99 1008.4
20260831065650 20 192 0.0 0.0 0.00 0.00 0.00 99 1008.4
20260831065148 21 192 0.0 0.0 0.00 0.00 0.00 99 1008.5
20260831064643 21 141 0.0 0.0 0.00 0.00 0.00 99 1008.3
20260831064134 21 213 0.0 0.0 0.00 0.00 0.00 99 1008.4
20260831063630 21 115 0.0 0.0 0.00 0.00 0.00 99 1008.3
20260831063124 21 150 0.0 0.0 0.00 0.00 0.00 99 1008.2
20260831062618 21 210 0.0 0.0 0.00 0.00 0.00 99 1008.4
20260831062112 21 103 0.0 1.6 0.00 0.00 0.00 99 1008.3
20260831061610 21 137 0.0 0.0 0.00 0.00 0.00 99 1008.5
20260831061106 21 125 1.6 3.2 0.00 0.00 0.00 99 1008.3
20260831060602 21 84 0.0 1.6 0.00 0.00 0.00 99 1008.3
20260831060056 21 87 0.0 0.0 0.00 0.00 0.00 99 1008.3
20260831055551 22 109 1.6 1.6 0.00 0.00 0.00 99 1008.3
20260831055047 22 137 0.0 1.6 0.00 0.00 0.00 99 1008.4
20260831054546 22 96 1.6 3.2 0.00 0.00 0.00 99 1008.2
20260831054045 22 84 3.2 4.8 0.00 0.00 0.00 99 1008.4
20260831053544 22 140 0.0 1.6 0.00 0.00 0.00 99 1008.4
20260831053039 22 123 1.6 3.2 0.00 0.00 0.00 99 1008.6
20260831052538 22 102 3.2 4.8 0.00 0.00 0.00 99 1008.5
20260831052037 22 80 1.6 4.8 0.00 0.00 0.00 99 1008.5
20260831051535 22 76 4.8 4.8 0.00 0.00 0.00 99 1008.1
20260831051030 22 37 3.2 6.4 0.00 0.00 0.00 98 1008.3
20260831050529 22 99 1.6 3.2 0.00 0.00 0.00 98 1008.2
20260831050028 22 115 1.6 6.4 0.00 0.00 0.00 98 1008.3
20260831045527 22 121 1.6 6.4 0.00 0.00 0.00 98 1008.2
20260831045022 22 105 3.2 9.7 0.00 0.00 0.00 98 1008.3
20260831044518 22 111 1.6 4.8 0.00 0.00 0.00 98 1008.3
20260831044013 22 100 1.6 9.7 0.00 0.00 0.00 97 1008.3
20260831043513 22 117 6.4 12.9 0.00 0.00 0.00 97 1008.4
20260831043008 22 140 4.8 6.4 0.00 0.00 0.00 97 1008.7
20260831042508 22 122 4.8 11.3 0.00 0.00 0.00 97 1008.6
20260831042003 22 161 4.8 12.9 0.00 0.00 0.00 97 1008.7
20260831041458 22 105 4.8 12.9 0.00 0.00 0.00 96 1008.9
20260831040957 22 146 3.2 9.7 0.00 0.00 0.00 96 1008.8
20260831040453 22 88 9.7 14.5 0.00 0.00 0.00 96 1009.0
20260831035950 22 180 1.6 9.7 0.00 0.00 0.00 96 1009.0
20260831035449 22 148 6.4 9.7 0.00 0.00 0.00 96 1009.0
20260831034944 23 75 6.4 6.4 0.00 0.00 0.00 96 1009.3
20260831034439 23 109 6.4 11.3 0.00 0.00 0.00 95 1009.1
20260831033934 23 104 6.4 11.3 0.00 0.00 0.00 95 1009.5
20260831033430 23 52 4.8 6.4 0.00 0.00 0.00 95 1009.4
20260831032926 23 126 8.0 14.5 0.00 0.00 0.00 95 1009.3
20260831032425 23 165 4.8 12.9 0.00 0.00 0.00 95 1009.4
20260831031920 23 98 8.0 9.7 0.00 0.00 0.00 95 1009.2
20260831031420 23 113 8.0 12.9 0.00 0.00 0.00 95 1009.3
20260831030914 23 174 4.8 9.7 0.00 0.00 0.00 95 1009.3
20260831030413 23 174 1.6 9.7 0.00 0.00 0.00 94 1009.4
20260831025912 23 146 3.2 12.9 0.00 0.00 0.00 94 1009.2
20260831025412 23 98 8.0 14.5 0.00 0.00 0.00 95 1009.2
20260831024908 23 82 8.0 12.9 0.00 0.00 0.00 95 1009.0
20260831024407 23 97 6.4 11.3 0.00 0.00 0.00 94 1009.1
20260831023907 23 56 11.3 12.9 0.00 0.00 0.00 94 1008.8
20260831023405 23 56 6.4 12.9 0.00 0.00 0.00 94 1008.8
20260831022901 23 96 6.4 16.1 0.00 0.00 0.00 94 1008.9
20260831022359 23 80 3.2 11.3 0.00 0.00 0.00 94 1008.7
20260831021854 23 73 9.7 16.1 0.00 0.00 0.00 94 1008.7
20260831021348 23 114 3.2 14.5 0.00 0.00 0.00 94 1008.7
20260831020844 23 111 3.2 9.7 0.00 0.00 0.00 94 1008.6
20260831020338 23 146 1.6 11.3 0.00 0.00 0.00 93 1008.5
20260831015834 23 85 4.8 16.1 0.00 0.00 0.00 93 1008.5
20260831015330 23 163 6.4 12.9 0.00 0.00 0.00 93 1008.4
20260831014829 23 166 3.2 9.7 0.00 0.00 0.00 93 1008.4
20260831014324 23 91 8.0 11.3 0.00 0.00 0.00 93 1008.3
20260831013820 23 103 11.3 14.5 0.00 0.00 0.00 93 1008.4
20260831013319 23 142 3.2 12.9 0.00 0.00 0.00 92 1008.5
20260831012814 23 84 6.4 11.3 0.00 0.00 0.00 92 1008.4
20260831012310 23 106 4.8 9.7 0.00 0.00 0.00 92 1008.7
20260831011803 23 82 11.3 12.9 0.00 0.00 0.00 92 1008.5
20260831011258 23 194 4.8 11.3 0.00 0.00 0.00 91 1008.7
20260831010754 23 94 8.0 14.5 0.00 0.00 0.00 91 1008.6
20260831010248 23 86 3.2 12.9 0.00 0.00 0.00 91 1008.7
20260831005744 24 151 4.8 11.3 0.00 0.00 0.00 91 1008.8
20260831005239 24 66 12.9 14.5 0.00 0.00 0.00 91 1009.0
20260831004734 24 111 4.8 9.7 0.00 0.00 0.00 90 1008.9
20260831004231 24 134 8.0 11.3 0.00 0.00 0.00 90 1008.7
20260831003726 24 64 3.2 6.4 0.00 0.00 0.00 89 1008.8
20260831003222 24 100 9.7 11.3 0.00 0.00 0.00 89 1009.0
20260831002721 25 142 1.6 9.7 0.00 0.00 0.00 89 1008.8
20260831002215 25 137 3.2 20.9 0.00 0.00 0.00 88 1008.9
20260831001713 25 102 3.2 12.9 0.00 0.00 0.00 88 1008.7
20260831001212 25 96 6.4 12.9 0.00 0.00 0.00 88 1008.8
20260831000709 25 119 3.2 12.9 0.00 0.00 0.00 88 1008.8
20260831000204 25 54 14.5 22.5 0.00 0.00 0.00 87 1008.7
20260830235703 25 161 6.4 14.5 0.00 0.00 0.00 86 1008.6
20260830235158 25 92 6.4 14.5 0.00 0.00 0.00 86 1008.9
20260830234653 25 113 8.0 14.5 0.00 0.00 0.00 86 1009.2
20260830234149 25 95 8.0 12.9 0.00 0.00 0.00 86 1009.1
20260830233644 25 177 4.8 6.4 0.00 0.00 0.00 85 1009.2
20260830233139 25 149 3.2 14.5 0.00 0.00 0.00 85 1009.4
20260830232635 25 55 6.4 14.5 0.00 0.00 0.00 85 1009.5
20260830232130 25 115 9.7 11.3 0.00 0.00 0.00 85 1009.5
20260830231626 25 84 12.9 20.9 0.00 0.00 0.00 86 1009.4
20260830231120 25 110 9.7 14.5 0.00 0.00 0.00 85 1009.6
20260830230616 25 96 4.8 14.5 0.00 0.00 0.00 85 1009.5
20260830230115 25 93 11.3 14.5 0.00 0.00 0.00 85 1009.4
20260830225610 25 67 1.6 12.9 0.00 0.00 0.00 86 1009.4
20260830225105 25 88 6.4 12.9 0.00 0.00 0.00 86 1009.6
20260830224603 25 98 9.7 20.9 0.00 0.00 0.00 85 1009.5
20260830224100 25 102 6.4 16.1 0.00 0.00 0.00 85 1009.6
20260830223557 25 117 3.2 17.7 0.00 0.00 0.00 86 1009.7
20260830223057 25 83 11.3 16.1 0.00 0.00 0.00 86 1010.0
20260830222551 25 111 4.8 6.4 0.00 0.00 0.00 86 1010.2
20260830222048 25 53 3.2 4.8 0.00 0.00 0.00 86 1010.4
20260830221543 25 110 3.2 14.5 0.00 0.00 0.00 86 1010.1
20260830221039 25 173 4.8 9.7 0.00 0.00 0.00 86 1010.1
20260830220538 25 115 1.6 11.3 0.00 0.00 0.00 86 1009.7
20260830220037 25 35 6.4 20.9 0.00 0.00 0.00 86 1009.9
20260830215532 25 81 3.2 12.9 0.00 0.00 0.00 84 1009.6
20260830215027 25 170 8.0 12.9 0.00 0.00 0.00 84 1009.7
20260830214522 25 153 9.7 16.1 0.00 0.00 0.00 82 1009.6
20260830214021 25 114 3.2 12.9 0.00 0.00 0.00 84 1009.4
20260830213516 25 106 11.3 16.1 0.00 0.00 0.00 83 1009.7
20260830213012 26 145 6.4 14.5 0.00 0.00 0.00 82 1009.7
20260830212507 26 93 8.0 24.1 0.00 0.00 0.00 80 1009.6
20260830212002 26 170 1.6 14.5 0.00 0.00 0.00 82 1009.4
20260830211456 25 120 6.4 17.7 0.00 0.00 0.00 82 1009.4
20260830210951 26 111 6.4 16.1 0.00 0.00 0.00 81 1009.4
20260830210451 26 141 3.2 11.3 0.00 0.00 0.00 81 1009.4
20260830205943 26 94 6.4 16.1 0.00 0.00 0.00 80 1009.4
20260830205442 26 124 9.7 14.5 0.00 0.00 0.00 79 1009.6
20260830204938 26 229 8.0 17.7 0.00 0.00 0.00 80 1009.5
20260830204437 26 121 9.7 16.1 0.00 0.00 0.00 80 1009.6
20260830203932 27 102 8.0 12.9 0.00 0.00 0.00 79 1009.6
20260830203428 26 74 14.5 20.9 0.00 0.00 0.00 80 1009.7
20260830202927 26 92 12.9 17.7 0.00 0.00 0.00 80 1009.9
20260830202422 27 109 14.5 20.9 0.00 0.00 0.00 78 1009.9
20260830201913 27 53 9.7 12.9 0.00 0.00 0.00 78 1010.0
20260830201411 26 118 8.0 16.1 0.00 0.00 0.00 80 1010.0
20260830200907 26 77 11.3 16.1 0.00 0.00 0.00 81 1010.1
20260830200407 26 60 9.7 22.5 0.00 0.00 0.00 79 1010.0
20260830195857 27 142 4.8 12.9 0.00 0.00 0.00 77 1010.1
20260830195356 26 99 9.7 17.7 0.00 0.00 0.00 79 1010.4
20260830194854 26 223 9.7 14.5 0.00 0.00 0.00 78 1010.1
20260830194348 26 146 9.7 17.7 0.00 0.00 0.00 79 1010.2
20260830193837 26 133 9.7 14.5 0.00 0.00 0.00 79 1010.3
20260830193331 26 72 14.5 16.1 0.00 0.00 0.00 77 1010.3
20260830192827 26 17 3.2 16.1 0.00 0.00 0.00 79 1010.4
20260830192326 27 68 9.7 17.7 0.00 0.00 0.00 78 1010.4
20260830191822 27 156 9.7 22.5 0.00 0.00 0.00 78 1010.4
20260830191321 26 96 3.2 22.5 0.00 0.00 0.00 78 1010.5
20260830190818 27 88 17.7 22.5 0.00 0.00 0.00 76 1010.5
20260830190317 27 108 14.5 22.5 0.00 0.00 0.00 76 1010.6
20260830185816 27 94 9.7 20.9 0.00 0.00 0.00 76 1010.4
20260830185312 27 181 4.8 17.7 0.00 0.00 0.00 78 1010.5
20260830184807 26 82 17.7 24.1 0.00 0.00 0.00 78 1010.5
20260830184306 26 89 16.1 22.5 0.00 0.00 0.00 77 1010.5
20260830183802 26 81 4.8 9.7 0.00 0.00 0.00 78 1010.7
20260830183301 26 63 6.4 20.9 0.00 0.00 0.00 79 1010.8
20260830182756 26 197 11.3 29.0 0.00 0.00 0.00 79 1010.7
20260830182252 26 156 6.4 17.7 0.00 0.00 0.00 79 1010.6
20260830181748 26 117 6.4 9.7 0.00 0.00 0.00 79 1010.8
20260830181243 25 8 6.4 16.1 0.00 0.00 0.00 82 1010.8
20260830180742 25 53 12.9 20.9 0.00 0.00 0.00 81 1010.9
20260830180237 25 129 6.4 17.7 0.00 0.00 0.00 82 1011.0
20260830175731 25 85 9.7 16.1 0.00 0.00 0.00 83 1011.2
20260830175226 25 61 12.9 16.1 0.00 0.00 0.00 83 1011.2
20260830174721 24 106 4.8 14.5 0.00 0.00 0.00 84 1011.1
20260830174217 23 84 4.8 9.7 0.00 0.00 0.00 86 1011.1
20260830173717 23 127 3.2 20.9 0.00 0.00 0.00 86 1011.4
20260830173212 23 97 4.8 12.9 0.00 0.00 0.00 85 1011.3
20260830172709 23 118 6.4 11.3 0.00 0.00 0.00 85 1011.4
20260830172205 23 144 4.8 14.5 0.00 0.00 0.00 87 1011.3
20260830171659 23 84 6.4 22.5 0.00 0.00 0.00 86 1011.1
20260830171154 23 89 14.5 17.7 0.00 0.00 0.00 85 1011.1
20260830170649 23 114 6.4 20.9 0.00 0.00 0.00 86 1010.9
20260830170148 23 88 11.3 16.1 0.00 0.00 0.00 86 1011.2
20260830165643 23 105 6.4 14.5 0.00 0.00 0.00 87 1011.1
20260830165139 23 112 9.7 20.9 0.00 0.00 0.00 86 1011.1
20260830164635 23 98 9.7 12.9 0.00 0.00 0.00 85 1011.2
20260830164130 22 190 6.4 12.9 0.00 0.00 0.00 88 1011.2
20260830163627 22 118 9.7 17.7 0.00 0.00 0.00 89 1011.3
20260830163127 23 100 8.0 14.5 0.00 0.00 0.00 86 1011.5
20260830162622 22 102 4.8 17.7 0.00 0.00 0.00 88 1011.4
20260830162118 22 143 12.9 17.7 0.00 0.00 0.00 88 1011.5
20260830161612 22 127 6.4 9.7 0.00 0.00 0.00 89 1011.2
20260830161107 22 137 3.2 9.7 0.00 0.00 0.00 88 1011.0
20260830160603 22 53 8.0 14.5 0.00 0.00 0.00 89 1011.0
20260830160058 22 107 3.2 9.7 0.00 0.00 0.00 88 1011.0
20260830155554 22 58 9.7 20.9 0.00 0.00 0.00 88 1010.9
20260830155049 23 58 8.0 17.7 0.00 0.00 0.00 87 1010.9
20260830154544 22 27 6.4 16.1 0.00 0.00 0.00 88 1010.7
20260830154041 22 103 4.8 16.1 0.00 0.00 0.00 89 1010.9
20260830153537 22 101 3.2 14.5 0.00 0.00 0.00 89 1010.8
20260830153036 22 106 8.0 17.7 0.00 0.00 0.00 91 1011.0
20260830152531 21 65 4.8 17.7 0.00 0.00 0.00 92 1011.0
20260830152030 21 94 4.8 6.4 0.00 0.00 0.00 93 1011.1
20260830151524 21 97 9.7 22.5 0.00 0.00 0.00 93 1011.3
20260830151019 21 85 3.2 17.7 0.00 0.00 0.00 93 1011.2
20260830150519 21 109 4.8 14.5 0.00 0.00 0.00 94 1011.4
20260830150014 20 57 8.0 12.9 0.00 0.00 0.00 95 1011.5
20260830145513 20 106 4.8 11.3 0.00 0.00 0.00 96 1011.6
20260830145009 20 95 8.0 20.9 0.00 0.00 0.00 96 1011.5
20260830144504 20 106 8.0 16.1 0.00 0.00 0.00 97 1011.4
20260830143959 20 58 12.9 17.7 0.00 0.00 0.00 97 1011.3
20260830143455 20 36 6.4 11.3 0.00 0.00 0.00 98 1011.3
20260830142953 20 54 6.4 16.1 0.00 0.00 0.00 98 1011.5
20260830142449 20 91 4.8 9.7 0.00 0.00 0.00 97 1011.4
20260830141943 20 244 1.6 6.4 0.00 0.00 0.00 98 1011.3
20260830141434 20 110 3.2 6.4 0.00 0.00 0.00 99 1011.2
20260830140928 20 46 6.4 17.7 0.00 0.00 0.00 99 1011.4
20260830140424 19 69 4.8 11.3 0.00 0.00 0.00 99 1011.4
20260830135923 19 67 6.4 12.9 0.00 0.00 0.00 99 1011.2
20260830135419 19 112 9.7 14.5 0.00 0.00 0.00 99 1011.4
20260830134914 19 119 8.0 16.1 0.00 0.00 0.00 99 1011.5
20260830134409 19 112 9.7 12.9 0.00 0.00 0.00 99 1011.7
20260830133904 18 75 3.2 14.5 0.00 0.00 0.00 99 1011.4
20260830133400 18 93 6.4 20.9 0.00 0.00 0.00 99 1011.7
20260830132855 18 140 4.8 11.3 0.00 0.00 0.00 99 1011.6
20260830132351 18 41 6.4 14.5 0.00 0.00 0.00 99 1011.5
20260830131850 18 81 6.4 9.7 0.00 0.00 0.00 99 1011.6
20260830131350 18 113 1.6 9.7 0.00 0.00 0.00 99 1011.5
20260830130845 18 108 3.2 9.7 0.00 0.00 0.00 99 1011.4
20260830130341 18 86 8.0 12.9 0.00 0.00 0.00 99 1011.8
20260830125839 18 59 3.2 6.4 0.00 0.00 0.00 99 1011.8
20260830125335 18 89 6.4 9.7 0.00 0.00 0.00 99 1011.6
20260830124832 18 69 6.4 12.9 0.00 0.00 0.00 99 1011.7
20260830124327 18 45 6.4 14.5 0.00 0.00 0.00 99 1011.8
20260830123824 18 87 3.2 4.8 0.00 0.00 0.00 99 1012.0
20260830123320 18 91 4.8 9.7 0.00 0.00 0.00 99 1011.6
20260830122818 18 88 3.2 12.9 0.00 0.00 0.00 99 1011.6
20260830122313 18 98 6.4 9.7 0.00 0.00 0.00 99 1011.3
20260830121809 18 136 1.6 9.7 0.00 0.00 0.00 99 1011.3
20260830121308 18 104 3.2 11.3 0.00 0.00 0.00 99 1011.3
20260830120803 18 91 1.6 4.8 0.00 0.00 0.00 99 1011.2
20260830120259 18 71 1.6 1.6 0.00 0.00 0.00 99 1011.2
20260830115755 18 355 3.2 6.4 0.00 0.00 0.00 99 1011.0
20260830115250 18 112 6.4 9.7 0.00 0.00 0.00 99 1010.9
20260830114747 18 75 4.8 14.5 0.00 0.00 0.00 99 1010.7
20260830114242 18 130 4.8 6.4 0.00 0.00 0.00 99 1010.9
20260830113737 18 105 6.4 11.3 0.00 0.00 0.00 99 1011.1
20260830113231 18 136 4.8 6.4 0.00 0.00 0.00 99 1011.0
20260830112727 18 98 3.2 12.9 0.00 0.00 0.00 99 1011.0
20260830112223 18 83 3.2 9.7 0.00 0.00 0.00 99 1010.9
20260830111719 18 41 4.8 11.3 0.00 0.00 0.00 99 1010.7
20260830111215 18 125 8.0 11.3 0.00 0.00 0.00 99 1010.7
20260830110714 18 113 1.6 6.4 0.00 0.00 0.00 99 1010.9
20260830110211 18 88 6.4 11.3 0.00 0.00 0.00 99 1010.8
20260830105710 18 125 3.2 4.8 0.00 0.00 0.00 99 1010.8
20260830105206 19 60 4.8 11.3 0.00 0.00 0.00 99 1010.7
20260830104703 19 86 6.4 6.4 0.00 0.00 0.00 99 1010.6
20260830104159 19 75 3.2 6.4 0.00 0.00 0.00 99 1010.9
20260830103658 19 103 3.2 6.4 0.00 0.00 0.00 99 1011.0
20260830103154 19 90 1.6 9.7 0.00 0.00 0.00 99 1011.1
20260830102652 19 122 1.6 6.4 0.00 0.00 0.00 99 1011.2
20260830102148 19 60 3.2 3.2 0.00 0.00 0.00 99 1011.3
20260830101644 19 66 1.6 4.8 0.00 0.00 0.00 99 1011.4
20260830101138 19 116 3.2 6.4 0.00 0.00 0.00 99 1011.1
20260830100632 19 73 4.8 6.4 0.00 0.00 0.00 99 1011.6
20260830100126 19 94 3.2 4.8 0.00 0.00 0.00 99 1011.6
20260830095625 19 54 4.8 6.4 0.00 0.00 0.00 99 1011.4
20260830095122 19 96 3.2 4.8 0.00 0.00 0.00 99 1011.3
20260830094618 19 108 6.4 11.3 0.00 0.00 0.00 99 1011.7
20260830094113 19 62 3.2 6.4 0.00 0.00 0.00 99 1011.5
20260830093603 19 122 1.6 3.2 0.00 0.00 0.00 99 1011.4
20260830093059 19 98 3.2 4.8 0.00 0.00 0.00 99 1011.6
20260830092553 19 81 8.0 12.9 0.00 0.00 0.00 99 1011.5
20260830092051 19 163 1.6 3.2 0.00 0.00 0.00 99 1011.4
20260830091545 19 131 1.6 6.4 0.00 0.00 0.00 99 1011.4
20260830091044 19 121 0.0 9.7 0.00 0.00 0.00 99 1011.4
20260830090534 19 65 4.8 9.7 0.00 0.00 0.00 99 1011.4
20260830090029 19 121 3.2 6.4 0.00 0.00 0.00 99 1011.5
20260830085523 19 73 4.8 11.3 0.00 0.00 0.00 99 1011.4
20260830085020 19 126 1.6 3.2 0.00 0.00 0.00 99 1011.3
20260830084515 19 111 4.8 9.7 0.00 0.00 0.00 99 1011.2
20260830084014 19 141 4.8 6.4 0.00 0.00 0.00 99 1011.4
20260830083510 19 69 4.8 6.4 0.00 0.00 0.00 99 1011.4
20260830083005 19 102 1.6 4.8 0.00 0.00 0.00 99 1011.4